Regional Weather Roundup
Issued by NWS

Home | Current Version | Previous Version | Graphics & Text | Print | Product List | Glossary Off
Versions: 1 2 3 4 5 6 7 8 9 10 11 12 13 14 15 16 17 18 19 20 21 22 23 24 25 26 27 28 29 30 31 32 33 34 35 36 37 38 39 40 41 42 43 44 45 46 47 48 49 50

419
ASUS43 KTOP 292259
RWRKS

WEATHER ROUNDUP FOR KANSAS
NATIONAL WEATHER SERVICE GOODLAND KS
600 PM CDT SAT APR 29 2017

NOTE:  "FAIR" INDICATES FEW OR NO CLOUDS BELOW 12,000 FEET WITH NO
SIGNIFICANT WEATHER AND/OR OBSTRUCTIONS TO VISIBILITY.

KSZ001>006-013>018-027>032-041>047-300000-
NORTHWEST KANSAS

CITY           SKY/WX    TMP DP  RH WIND       PRES   REMARKS
GOODLAND       LGT SNOW  35  32  88 N25G33    30.02F FOG     WCI  23
HAYS           LGT RAIN  40  38  93 N21G29    29.91S FOG     WCI  30
HILL CITY      LGT RAIN  40  38  93 N20G29    29.97S FOG     WCI  30
RUSSELL        LGT RAIN  41  39  93 N23G39    29.86F FOG
$$

KSZ061>065-074>080-084>089-300000-
SOUTHWEST KANSAS

CITY           SKY/WX    TMP DP  RH WIND       PRES   REMARKS
DODGE CITY     RAIN      39  37  92 N29G39    29.87R FOG     WCI  27
ELKHART          N/A    N/A N/A N/A MISG        N/A
GARDEN CITY    LGT SNOW  34  32  92 N37G47    29.86F FOG     WCI  19
GREAT BEND     LGT RAIN  42  41  96 N21G31    29.84R
LIBERAL        LGT RAIN  35  33  92 N23G29    29.88S FOG     WCI  23
$$

KSZ066>073-081>083-090>101-300000-
SOUTHEAST KANSAS

CITY           SKY/WX    TMP DP  RH WIND       PRES   REMARKS
CHANUTE        TSTM      55  53  93 NE10      29.66F FOG
COFFEYVILLE    LGT RAIN  57  56  96 N13       29.65R
HUTCHINSON     LGT RAIN  45  43  93 N18G31    29.76F
MEDICINE LODGE   N/A    N/A N/A N/A N18G36    29.72F
NEWTON         CLOUDY    45  44  97 N18G28    29.75F
PARSONS        TSTM      55  54  96 NE9G20    29.64R FOG
WICHITA INTL   CLOUDY    48  46  93 N21G26    29.72F
WICHITA JABRA  CLOUDY    47  46  97 N18G26    29.72F
WINFIELD       CLOUDY    50  48  93 N15G24    29.69F
$$

KSZ007>012-019>026-033>040-048>060-102>105-300000-
NORTHEAST KANSAS

CITY           SKY/WX    TMP DP  RH WIND       PRES   REMARKS
CONCORDIA      LGT RAIN  42  42 100 NE16G33   29.88F FOG
EMPORIA        LGT RAIN  47  47 100 N12       29.76R
LAWRENCE       LGT RAIN  49  48  97 N13       29.79F FOG
MANHATTAN      CLOUDY    46  46 100 NE14      29.83S FOG
OLATHE IND     RAIN      49  49 100 N10       29.80R FOG
OLATHE EXE     RAIN      49  49 100 N7        29.81R FOG
SALINA         LGT RAIN  47  44  90 N15G26    29.84S FOG
TOPEKA BILLARD LGT RAIN  47  47 100 N14G22    29.80F FOG
TOPEKA FORBES  LGT RAIN  49  47  93 N14G21    29.80S FOG
$$




USA.gov is the U.S. government's official web portal to all federal, state and local government web resources and services.